This demonstration page uses our WeatherBlox Daily Observations layout. Learn more.

Left ArrowRight Arrow

39.08367, -84.50855

Hourly Observations for January 3, 2021

Temp ( °F °C ) Dew Point ( °F °C ) Humidity (%) Winds ( mph kmh ) Pressure ( in mb ) Visibility ( mi km ) Precip ( " mm )
12:04 am 00:04 Cloudy 39 3.9 36 2.2 89 89 WNW 3 6 29.98 1015 10 16.0934 0.001 0.001
12:25 am 00:25 Cloudy 39 3.9 36 2.2 89 89 W 3 6 29.98 1015 10 16.0934 0.001 0.001
12:50 am 00:50 Cloudy 39 4 36 2 87 87 Calm 29.97 1015 10 16.0934 0.001 0.001
12:53 am 00:53 Cloudy 39 3.9 36 2.2 89 89 Calm 29.96 1015 10 16.0934 0.001 0.001
1:36 am 01:36 Cloudy with Mist and Fog 39 3.9 37 2.8 93 93 Calm 29.97 1015 5 8.0467 0.001 0.001
1:44 am 01:44 Cloudy with Mist and Fog 39 3.9 37 2.8 93 93 Calm 29.96 1015 5 8.0467 0.001 0.001
1:53 am 01:53 Cloudy with Mist and Fog 38 3.3 37 2.8 97 97 Calm 29.95 1014 4 6.43736 0.001 0.001
2:53 am 02:53 Cloudy with Mist and Fog 39 3.9 38 3.3 96 96 Calm 29.95 1014 4 6.43736 0.01 0.254
3:53 am 03:53 Cloudy with Mist and Fog 38 3.3 37 2.8 97 97 Calm 29.95 1014 4 6.43736 0.001 0.001
4:44 am 04:44 Cloudy with Mist and Fog 38 3.3 37 2.8 97 97 Calm 29.97 1015 5 8.0467 0 0
4:53 am 04:53 Cloudy with Mist and Fog 38 3.3 37 2.8 97 97 Calm 29.96 1015 5 8.0467 0 0
5:53 am 05:53 Cloudy with Mist and Fog 39 3.9 37 2.8 93 93 S 3 6 29.96 1015 5 8.0467 0 0
6:53 am 06:53 Cloudy 38 3.3 36 2.2 93 93 SW 3 6 29.97 1015 7 11.26538 0.001 0.001
7:53 am 07:53 Cloudy 38 3.3 36 2.2 93 93 WSW 6 9 29.98 1015 9 14.48406 0 0
8:53 am 08:53 Cloudy 39 3.9 36 2.2 89 89 W 7 11 30 1016 10 16.0934 0 0
9:53 am 09:53 Cloudy 40 4.4 35 1.7 83 83 WSW 13 20 30.03 1017 10 16.0934 0 0
10:53 am 10:53 Cloudy 40 4.4 33 0.6 77 77 W 12 19 30.03 1017 10 16.0934 0 0
11:53 am 11:53 Cloudy 40 4.4 33 0.6 77 77 WSW 15 24 30.03 1017 10 16.0934 0 0
12:53 pm 12:53 Cloudy 40 4.4 32 0 73 73 WSW 9 15 30.01 1016 10 16.0934 0 0
1:53 pm 13:53 Cloudy 39 3.9 30 -1.1 70 70 WSW 10 17 30.01 1016 10 16.0934 0 0
2:53 pm 14:53 Cloudy 39 3.9 30 -1.1 70 70 WSW 13 20 30.02 1017 10 16.0934 0 0
3:53 pm 15:53 Cloudy 39 3.9 30 -1.1 70 70 W 9 15 30.04 1017 10 16.0934 0 0
4:53 pm 16:53 Cloudy 38 3.3 29 -1.7 70 70 W 12 19 30.06 1018 10 16.0934 0 0
5:53 pm 17:53 Cloudy 37 2.8 30 -1.1 76 76 WSW 10 17 30.07 1018 10 16.0934 0 0
6:53 pm 18:53 Cloudy 37 2.8 30 -1.1 76 76 W 7 11 30.08 1019 10 16.0934 0 0
7:53 pm 19:53 Cloudy 37 2.8 31 -0.6 79 79 W 7 11 30.1 1019 10 16.0934 0 0
8:53 pm 20:53 Cloudy 36 2.2 32 0 86 86 W 3 6 30.1 1019 9 14.48406 0.001 0.001
9:53 pm 21:53 Cloudy 36 2.2 32 0 86 86 SW 5 7 30.09 1019 10 16.0934 0 0
10:53 pm 22:53 Cloudy 36 2.2 31 -0.6 82 82 Calm 30.09 1019 10 16.0934 0 0
11:17 pm 23:17 Cloudy 36 2.2 32 0 86 86 Calm 30.11 1020 10 16.0934 0 0
11:29 pm 23:29 Cloudy 35 1.7 31 -0.6 85 85 WSW 5 7 30.1 1019 10 16.0934 0 0
11:53 pm 23:53 Cloudy 35 1.7 31 -0.6 85 85 WSW 5 7 30.09 1019 10 16.0934 0 0

Powered by AerisWeather